Weather History for KBVE - October, 2013

Change the Weather History Date:

Friday, October 4, 2013

  Actual Average Record
Temperature  
Mean Temperature 80 °F -  
Max Temperature 84 °F - - ()
Min Temperature 75 °F - - ()
Cooling Degree Days 14    
Growing Degree Days 30 (Base 50)    
Moisture  
Dew Point 74 °F    
Average Humidity 83    
Maximum Humidity 91    
Minimum Humidity 67    
Precipitation  
Precipitation 0.07 in - - ()
Sea Level Pressure  
Sea Level Pressure 30.01 in    
Wind  
Wind Speed 8 mph (ESE)    
Max Wind Speed 21 mph    
Max Gust Speed 30 mph    
Visibility 9 miles    
Events Rain    
T = Trace of Precipitation, MM = Missing Value Source: NWS Daily Summary

Daily Weather History Graph

Daily Weather History Graph

Search for Another Location

Airport or City:

Trip Planner

Search our weather history database for the weather conditions in past years. The results will help you decide how hot, cold, wet, or windy it might be!

Date:

Astronomy

Oct. 04, 2013 Rise Set
Actual Time 6:52 AM CDT 6:39 PM CDT
Civil Twilight 6:28 AM CDT 7:03 PM CDT
Nautical Twilight 6:01 AM CDT 7:30 PM CDT
Astronomical Twilight 5:33 AM CDT 7:58 PM CDT
Moon 6:27 AM CDT (10/4) 6:24 PM CDT (10/4)
Length of Visible Light 12h 34m
Length of Day
11h 46m
Waning Crescent, 0% of the Moon is Illuminated
Oct 4
Waning Crescent
Oct 4
New
Oct 11
First Quarter
Oct 18
Full
Oct 26
Last Quarter

Hourly Weather History & Observations

Time (CDT) Temp. Heat Index Dew Point Humidity Pressure Visibility Wind Dir Wind Speed Gust Speed Precip Events Conditions
12:51 AM 75.9 °F - 73.0 °F 91% 29.97 in 10.0 mi South 3.5 mph - N/A   Clear
1:51 AM 75.9 °F - 73.0 °F 91% 29.97 in 10.0 mi East 4.6 mph - N/A   Clear
2:51 AM 77.0 °F - 72.0 °F 84% 29.97 in 10.0 mi East 6.9 mph - N/A   Clear
3:51 AM 77.0 °F - 73.0 °F 88% 29.96 in 10.0 mi East 5.8 mph - N/A   Clear
4:51 AM 78.1 °F - 73.9 °F 87% 29.98 in 10.0 mi East 6.9 mph - N/A   Clear
5:51 AM 79.0 °F - 73.9 °F 84% 29.99 in 10.0 mi East 6.9 mph - N/A   Clear
6:51 AM 79.0 °F - 73.9 °F 84% 30.00 in 10.0 mi East 6.9 mph - N/A   Clear
7:51 AM 80.1 °F 85.1 °F 75.0 °F 85% 30.01 in 10.0 mi East 9.2 mph - N/A   Scattered Clouds
8:51 AM 81.0 °F 86.7 °F 75.0 °F 82% 30.02 in 10.0 mi East 8.1 mph - N/A   Clear
9:51 AM 82.9 °F 90.2 °F 75.0 °F 77% 30.03 in 10.0 mi East 9.2 mph - N/A   Scattered Clouds
10:42 AM 82.4 °F 90.9 °F 77.0 °F 84% 30.03 in 10.0 mi ESE 11.5 mph - 0.01 in   Mostly Cloudy
10:51 AM 82.9 °F 90.8 °F 75.9 °F 79% 30.04 in 10.0 mi East 13.8 mph 20.7 mph 0.01 in   Mostly Cloudy
11:41 AM 75.2 °F - 71.6 °F 89% 30.05 in 1.8 mi SE 11.5 mph 28.8 mph 0.01 in Rain Heavy Rain
11:51 AM 75.9 °F - 73.0 °F 91% 30.04 in 5.0 mi SE 5.8 mph - 0.05 in Rain Light Rain
12:26 PM 75.2 °F - 71.6 °F 89% 30.04 in 10.0 mi South 20.7 mph 29.9 mph 0.00 in Rain Light Rain
12:51 PM 75.9 °F - 73.0 °F 91% 30.04 in 4.0 mi SSE 18.4 mph 24.2 mph 0.00 in Rain Light Rain
1:51 PM 79.0 °F - 73.0 °F 82% 30.01 in 10.0 mi SE 12.7 mph 16.1 mph 0.01 in   Mostly Cloudy
2:51 PM 82.0 °F 86.3 °F 71.1 °F 69% 29.99 in 10.0 mi SE 12.7 mph 19.6 mph N/A   Scattered Clouds
3:51 PM 84.0 °F 89.6 °F 72.0 °F 67% 29.98 in 10.0 mi ESE 8.1 mph - N/A   Partly Cloudy
4:51 PM 82.9 °F 88.8 °F 73.0 °F 72% 29.98 in 10.0 mi ESE 12.7 mph - N/A   Partly Cloudy
5:51 PM 82.0 °F 87.4 °F 73.0 °F 74% 29.99 in 10.0 mi East 8.1 mph - N/A   Mostly Cloudy
6:51 PM 80.1 °F 84.5 °F 73.9 °F 81% 30.00 in 10.0 mi East 4.6 mph - N/A   Clear
7:51 PM 80.1 °F 84.5 °F 73.9 °F 81% 30.00 in 10.0 mi East 6.9 mph - N/A   Scattered Clouds
8:51 PM 80.1 °F 84.5 °F 73.9 °F 81% 30.01 in 10.0 mi East 8.1 mph - N/A   Partly Cloudy
9:51 PM 80.1 °F 85.1 °F 75.0 °F 85% 30.03 in 10.0 mi ESE 6.9 mph - N/A   Clear
10:51 PM 80.1 °F 85.1 °F 75.0 °F 85% 30.02 in 10.0 mi East 8.1 mph - N/A   Clear
11:51 PM 80.1 °F 85.1 °F 75.0 °F 85% 30.00 in 10.0 mi ESE 8.1 mph - N/A   Clear